METEOR 2-5 DEB

Satellite information

Favourite Embed

Satellite Type and Status

DEBRISIN ORBIT

Key statistics

Satellite METEOR 2-5 DEB at a glance.

Uptime

16626

Days in orbit

Revolutions

≈ 14.4

Per day

Orbit

LEO

Low Earth Orbit

Inclination

81.2

Latest

Satellite identification and parameters

Extended collection of information and parameters for METEOR 2-5 DEB.

Object identification

Identified? True

Debris? True

Object name: METEOR 2-5 DEB

International designator: 1979-095BC

Object number (NORAD): 36911

Object ID (CCSDS): 36911

Country: COMMONWEALTH OF INDEPENDENT STATES (CIS)

Current information (Y/N): Y

RCS size: SMALL

Orbital parameters

Period: 100.279 minutes

Inclination: 81.1827 deg

SMA: 7149.912 km

Apoapsis: 787.717 km

Periapsis: 755.837 km

RAAN: 169.0411 deg

Eccentricy: 0.0022294

Argument of periapsis: 142.5597 deg

Mean anomaly: 217.7146 deg

Mean motion: 14.35991035 rev/day

Mean motion (dot): 0.00009345 rev/day2

B* drag term: 0.0032021 1/REarth

Two-line elements (TLE)

Creation date: May 6, 2025, 3:54 a.m.

Reference frame: TEME

Reference center: EARTH

Epoch: May 5, 2025, 8:01 p.m. UTC

TLE line 0: 0 METEOR 2-5 DEB

TLE line 1: 1 36911U 79095BC 25125.83411691 .00009345 00000-0 32021-2 0 9999

TLE line 2: 2 36911 81.1827 169.0411 0022294 142.5597 217.7146 14.35991035612213

Live tracking on map

Real-time ground track for satellite METEOR 2-5 DEB.

In-orbit conjunctions

A list of the most updated potential collisions computed for object METEOR 2-5 DEB.

Target Orbit TCA Probability of collision Miss distance Type
NOAA 16 DEB SSO 2025-01-01 09:43:53 0.0003458989 90.0 (m) DEBRIS
COSMOS 2251 DEB LEO 2024-11-16 02:17:27 0.0001338975 766.0 (m) DEBRIS

Associated space launch

Second generation soviet meteorological satellite

METEOR 2-5 DEB was lifted into orbit during the mission ‘Vostok 8A92M | Meteor-2 5’, on board a Vostok 8A92M space rocket.

The launch took place on Oct. 31, 1979, 9:25 a.m. from 43/4 (43R).

For more information about the launch, click the button.

Launch to space Vostok 8A92M | Meteor-2 5
Vostok 8A92M | Meteor-2 5

Agency: N/A

Status: Launch Successful

Launch date: Oct. 31, 1979, 9:25 a.m. UTC

Rocket: Vostok 8A92M

Launch pad: 43/4 (43R)

Location: Plesetsk Cosmodrome, Russian Federation

...

Latest news about this satellite

There are no fresh news available about this satellite. Check back as we update our databases every day.


Newsletter sign-up

Weekly statistics, charts and insights to help you stay on top of the space industry.